Home > Weather > Changchun > Past weeks

Flag for China Past Weather in Changchun, Jilin, China — Yesterday and Last 2 Weeks

Now
68 °F

Sunny.


Feels Like: 68 °F
Forecast: 67 / 80 °F
Wind: 3 mph from South

Location: Changchun Airport

Current Time: Jun 28, 2016 at 4:21:07 AM

Latest Report: Jun 28, 2016 at 4:00 AM


Visibility: 10 mi

Pressure: 29.77 "Hg

Humidity: 78%

Dew Point: 61 °F

Location of ChangchunLocation

Past Weather in Changchun — Graph

°F

Changchun Temperature Yesterday

Maximum temperature yesterday: 86 °F (at 3:00 PM)
Minimum temperature yesterday: 61 °F (at 2:00 AM)
Average temperature yesterday: 75 °F

High & Low Weather Summary for the Past Weeks

 TemperatureHumidityPressure
High86 °F (Jun 27, 3:00 PM)94% (Jun 16, 3:00 AM)29.80 "Hg (Jun 16, 3:00 AM)
Low54 °F (Jun 14, 4:00 AM)25% (Jun 14, 3:00 PM)29.42 "Hg (Jun 16, 3:00 PM)
Average69 °F68%29.63 "Hg
* Reported Jun 13 3:00 AM — Jun 28 3:00 AM, Changchun, Weather by CustomWeather, © 2016

Note: Actual official high and low records may vary slightly from our data, if they occured in-between our weather recording intervals... More about our weather records

Advertising

Changchun Weather History for the Previous 24 Hours

Scroll right to see more
 ConditionsComfort  
Time TempWeatherWind HumidityBarometerVisibility
3:00 AM
Tue, Jun 28
68 °FClear.6 mph78%29.77 "Hg10 mi
2:00 AM68 °FClear.6 mph78%29.77 "Hg10 mi
1:00 AM68 °FClear.6 mph73%29.77 "Hg10 mi
12:00 AM70 °FClear.6 mph64%29.74 "Hg10 mi
11:00 PM
Mon, Jun 27
70 °FClear.8 mph69%29.74 "Hg10 mi
10:00 PM72 °FClear.3 mph57%29.74 "Hg10 mi
9:00 PM73 °FClear.3 mph57%29.74 "Hg10 mi
8:00 PM77 °FClear.3 mph47%29.74 "Hg10 mi
7:00 PM81 °FPassing clouds.3 mph45%29.71 "HgN/A
6:00 PM82 °FSunny.3 mph40%29.71 "Hg10 mi
5:00 PM84 °FPassing clouds.6 mph31%29.71 "HgN/A
4:00 PM84 °FPassing clouds.8 mph29%29.71 "HgN/A
3:00 PM86 °FPassing clouds.8 mph25%29.71 "HgN/A
2:00 PM84 °FPassing clouds.10 mph27%29.71 "HgN/A
1:00 PM84 °FPassing clouds.10 mph43%29.74 "HgN/A
12:00 PM84 °FPassing clouds.8 mph43%29.74 "HgN/A
11:00 AM82 °FPassing clouds.8 mph48%29.74 "HgN/A
10:00 AM79 °FPassing clouds.8 mph58%29.74 "HgN/A
9:00 AM79 °FPassing clouds.6 mph51%29.77 "HgN/A
8:00 AM75 °FSunny.10 mph50%29.77 "Hg10 mi
7:00 AM72 °FPassing clouds.6 mph61%29.77 "HgN/A
6:00 AM68 °FSunny.6 mph64%29.77 "Hg10 mi
5:00 AM64 °FSunny.6 mph68%29.77 "Hg10 mi
4:00 AM63 °FSunny.8 mph73%29.77 "Hg10 mi
Weather by CustomWeather, © 2016

See weather overviewHow to use our weather pages